| time (UTC) | temp F | wind direction | speed MPH | gust MPH | rain 1hr in | rain 24hr in | rain mn in | humidity % | barometer mb |
| 20260901140654 | 73 | 68 | 9.0 | 19.0 | 0.00 | 0.00 | 0.00 | 55 | 1007.8 |
| 20260901135947 | 71 | 45 | 9.0 | 17.0 | 0.00 | 0.00 | 0.00 | 59 | 1007.9 |
| 20260901135253 | 71 | 68 | 7.0 | 13.0 | 0.00 | 0.00 | 0.00 | 60 | 1007.9 |
| 20260901133907 | 70 | 90 | 6.0 | 13.0 | 0.00 | 0.00 | 0.00 | 63 | 1007.8 |
| 20260901133148 | 69 | 90 | 7.0 | 14.0 | 0.00 | 0.00 | 0.00 | 62 | 1007.9 |
| 20260901132459 | 69 | 68 | 6.0 | 12.0 | 0.00 | 0.00 | 0.00 | 63 | 1008.0 |
| 20260901131748 | 70 | 68 | 7.0 | 14.0 | 0.00 | 0.00 | 0.00 | 63 | 1007.8 |
| 20260901131049 | 70 | 68 | 7.0 | 13.0 | 0.00 | 0.00 | 0.00 | 64 | 1007.7 |
| 20260901130348 | 68 | 68 | 4.0 | 9.0 | 0.00 | 0.00 | 0.00 | 67 | 1008.0 |
| 20260901125653 | 68 | 68 | 4.0 | 9.0 | 0.00 | 0.00 | 0.00 | 66 | 1007.8 |
| 20260901125012 | 70 | 68 | 6.0 | 13.0 | 0.00 | 0.00 | 0.00 | 64 | 1007.8 |
| 20260901124248 | 70 | 68 | 5.0 | 11.0 | 0.00 | 0.00 | 0.00 | 65 | 1007.8 |
| 20260901123556 | 68 | 68 | 6.0 | 12.0 | 0.00 | 0.00 | 0.00 | 67 | 1007.7 |
| 20260901122854 | 68 | 68 | 8.0 | 17.0 | 0.00 | 0.00 | 0.00 | 66 | 1007.6 |
| 20260901122157 | 69 | 45 | 8.0 | 17.0 | 0.00 | 0.00 | 0.00 | 65 | 1007.8 |
| 20260901121501 | 68 | 68 | 7.0 | 14.0 | 0.00 | 0.00 | 0.00 | 66 | 1007.8 |
| 20260901120754 | 69 | 68 | 7.0 | 12.0 | 0.00 | 0.00 | 0.00 | 65 | 1007.7 |
| 20260901120134 | 70 | 68 | 8.0 | 18.0 | 0.00 | 0.00 | 0.00 | 64 | 1007.9 |
| 20260901115350 | 70 | 68 | 7.0 | 13.0 | 0.00 | 0.00 | 0.00 | 63 | 1007.9 |
| 20260901114650 | 69 | 45 | 11.0 | 20.0 | 0.00 | 0.00 | 0.00 | 64 | 1007.7 |
| 20260901114008 | 69 | 45 | 13.0 | 20.0 | 0.00 | 0.00 | 0.00 | 64 | 1007.7 |
| 20260901113258 | 70 | 45 | 11.0 | 22.0 | 0.00 | 0.00 | 0.00 | 62 | 1007.6 |
| 20260901112551 | 71 | 23 | 9.0 | 14.0 | 0.00 | 0.00 | 0.00 | 64 | 1007.6 |
| 20260901111851 | 70 | 90 | 8.0 | 13.0 | 0.00 | 0.00 | 0.00 | 66 | 1007.4 |
| 20260901110519 | 68 | 68 | 9.0 | 13.0 | 0.00 | 0.00 | 0.00 | 68 | 1007.5 |
| 20260901105751 | 70 | 45 | 13.0 | 22.0 | 0.00 | 0.00 | 0.00 | 64 | 1007.5 |
| 20260901105056 | 71 | 45 | 7.0 | 17.0 | 0.00 | 0.00 | 0.00 | 65 | 1007.2 |
| 20260901104411 | 71 | 90 | 7.0 | 14.0 | 0.00 | 0.00 | 0.00 | 65 | 1007.2 |
| 20260901103651 | 70 | 68 | 6.0 | 11.0 | 0.00 | 0.00 | 0.00 | 69 | 1007.2 |
| 20260901103000 | 69 | 68 | 7.0 | 14.0 | 0.00 | 0.00 | 0.00 | 66 | 1007.3 |
| 20260901102252 | 69 | 68 | 8.0 | 14.0 | 0.00 | 0.00 | 0.00 | 66 | 1007.3 |
| 20260901101552 | 69 | 45 | 9.0 | 15.0 | 0.00 | 0.00 | 0.00 | 65 | 1007.1 |
| 20260901100857 | 70 | 23 | 9.0 | 16.0 | 0.00 | 0.00 | 0.00 | 65 | 1007.0 |
| 20260901100157 | 70 | 23 | 10.0 | 17.0 | 0.00 | 0.00 | 0.00 | 65 | 1007.1 |
| 20260901095501 | 70 | 23 | 11.0 | 17.0 | 0.00 | 0.00 | 0.00 | 63 | 1006.9 |
| 20260901094753 | 70 | 45 | 9.0 | 17.0 | 0.00 | 0.00 | 0.00 | 64 | 1007.1 |
| 20260901094101 | 71 | 45 | 8.0 | 16.0 | 0.00 | 0.00 | 0.00 | 62 | 1007.1 |
| 20260901092654 | 73 | 23 | 11.0 | 17.0 | 0.00 | 0.00 | 0.00 | 61 | 1006.9 |
| 20260901092002 | 71 | 68 | 9.0 | 15.0 | 0.00 | 0.00 | 0.00 | 63 | 1007.1 |
| 20260901091258 | 72 | 23 | 10.0 | 18.0 | 0.00 | 0.00 | 0.00 | 61 | 1007.2 |
| 20260901090602 | 72 | 359 | 0.0 | 0.0 | 0.00 | 0.00 | 0.00 | 62 | 1007.0 |
| 20260901085854 | 72 | 359 | 0.0 | 0.0 | 0.00 | 0.00 | 0.00 | 62 | 1007.2 |
| 20260901085158 | 71 | 23 | 11.0 | 19.0 | 0.00 | 0.00 | 0.00 | 64 | 1006.8 |
| 20260901084459 | 70 | 23 | 12.0 | 19.0 | 0.00 | 0.00 | 0.00 | 64 | 1006.9 |
| 20260901083802 | 70 | 45 | 10.0 | 17.0 | 0.00 | 0.00 | 0.00 | 64 | 1007.0 |
| 20260901083102 | 71 | 45 | 9.0 | 15.0 | 0.00 | 0.00 | 0.00 | 66 | 1006.7 |
| 20260901082355 | 69 | 45 | 9.0 | 17.0 | 0.00 | 0.00 | 0.00 | 68 | 1006.9 |
| 20260901081659 | 71 | 23 | 9.0 | 17.0 | 0.00 | 0.00 | 0.00 | 67 | 1006.8 |
| 20260901081004 | 70 | 23 | 12.0 | 20.0 | 0.00 | 0.00 | 0.00 | 67 | 1006.9 |
| 20260901080259 | 70 | 23 | 8.0 | 21.0 | 0.00 | 0.00 | 0.00 | 68 | 1006.9 |
| 20260901075600 | 70 | 359 | 0.0 | 0.0 | 0.00 | 0.00 | 0.00 | 70 | 1007.0 |
| 20260901074856 | 69 | 359 | 0.0 | 0.0 | 0.00 | 0.00 | 0.00 | 71 | 1007.0 |
| 20260901074156 | 68 | 23 | 9.0 | 15.0 | 0.00 | 0.00 | 0.00 | 71 | 1006.9 |
| 20260901073500 | 68 | 23 | 9.0 | 15.0 | 0.00 | 0.00 | 0.00 | 72 | 1006.8 |
| 20260901072056 | 64 | 23 | 7.0 | 13.0 | 0.00 | 0.00 | 0.00 | 78 | 1006.8 |
| 20260901071357 | 64 | 23 | 7.0 | 17.0 | 0.00 | 0.00 | 0.00 | 78 | 1006.7 |
| 20260901070657 | 64 | 23 | 7.0 | 15.0 | 0.00 | 0.00 | 0.00 | 77 | 1006.6 |
| 20260901065958 | 65 | 23 | 5.0 | 11.0 | 0.00 | 0.00 | 0.00 | 76 | 1006.5 |
| 20260901065257 | 65 | 23 | 4.0 | 13.0 | 0.00 | 0.00 | 0.00 | 77 | 1006.5 |
| 20260901064558 | 65 | 45 | 4.0 | 12.0 | 0.00 | 0.00 | 0.00 | 77 | 1006.5 |
| 20260901063858 | 65 | 23 | 5.0 | 12.0 | 0.00 | 0.00 | 0.00 | 78 | 1006.4 |
| 20260901063157 | 64 | 23 | 7.0 | 13.0 | 0.00 | 0.00 | 0.00 | 78 | 1006.4 |
| 20260901062502 | 64 | 23 | 9.0 | 14.0 | 0.00 | 0.00 | 0.00 | 79 | 1006.4 |
| 20260901061802 | 63 | 23 | 9.0 | 16.0 | 0.00 | 0.00 | 0.00 | 80 | 1006.4 |
| 20260901061059 | 63 | 23 | 7.0 | 13.0 | 0.00 | 0.00 | 0.00 | 81 | 1006.4 |
| 20260901060358 | 63 | 23 | 5.0 | 10.0 | 0.00 | 0.00 | 0.00 | 81 | 1006.1 |
| 20260901055659 | 63 | 23 | 5.0 | 12.0 | 0.00 | 0.00 | 0.00 | 80 | 1006.1 |
| 20260901055003 | 63 | 23 | 6.0 | 12.0 | 0.00 | 0.00 | 0.00 | 78 | 1006.3 |
| 20260901054302 | 65 | 23 | 4.0 | 9.0 | 0.00 | 0.00 | 0.00 | 78 | 1006.1 |
| 20260901052900 | 65 | 23 | 5.0 | 10.0 | 0.00 | 0.00 | 0.00 | 81 | 1006.1 |
| 20260901052200 | 64 | 23 | 4.0 | 8.0 | 0.00 | 0.00 | 0.00 | 81 | 1005.9 |
| 20260901051501 | 64 | 23 | 6.0 | 12.0 | 0.00 | 0.00 | 0.00 | 81 | 1005.9 |
| 20260901050811 | 64 | 23 | 6.0 | 12.0 | 0.00 | 0.00 | 0.00 | 83 | 1005.9 |
| 20260901050100 | 63 | 23 | 4.0 | 9.0 | 0.00 | 0.00 | 0.00 | 86 | 1005.8 |
| 20260901045409 | 62 | 23 | 3.0 | 7.0 | 0.00 | 0.00 | 0.00 | 90 | 1005.8 |
| 20260901044708 | 60 | 23 | 2.0 | 5.0 | 0.00 | 0.00 | 0.00 | 92 | 1005.8 |
| 20260901044002 | 59 | 23 | 1.0 | 6.0 | 0.00 | 0.00 | 0.00 | 91 | 1005.4 |
| 20260901043300 | 59 | 23 | 1.0 | 6.0 | 0.00 | 0.00 | 0.00 | 90 | 1005.3 |
| 20260901042609 | 59 | 23 | 2.0 | 6.0 | 0.00 | 0.00 | 0.00 | 90 | 1005.3 |
| 20260901041902 | 59 | 23 | 2.0 | 7.0 | 0.00 | 0.00 | 0.00 | 90 | 1005.3 |
| 20260901041214 | 59 | 23 | 2.0 | 5.0 | 0.00 | 0.00 | 0.00 | 90 | 1005.2 |
| 20260901040502 | 60 | 23 | 2.0 | 7.0 | 0.00 | 0.00 | 0.00 | 90 | 1005.3 |
| 20260901035810 | 60 | 23 | 3.0 | 7.0 | 0.00 | 0.00 | 0.00 | 90 | 1005.2 |
| 20260901035101 | 60 | 0 | 2.0 | 5.0 | 0.00 | 0.00 | 0.00 | 90 | 1005.1 |
| 20260901034402 | 60 | 359 | 0.0 | 0.0 | 0.00 | 0.00 | 0.00 | 90 | 1005.1 |
| 20260901033706 | 212 | 359 | 0.0 | 0.0 | 0.00 | 0.00 | 0.00 | 100 | |
| 20260901033003 | 61 | 0 | 3.0 | 6.0 | 0.00 | 0.00 | 0.00 | 91 | 1004.8 |
| 20260901032307 | 61 | 0 | 3.0 | 9.0 | 0.00 | 0.00 | 0.00 | 91 | 1004.8 |
| 20260901031604 | 61 | 359 | 0.0 | 0.0 | 0.00 | 0.00 | 0.00 | 92 | 1005.0 |
| 20260901030912 | 61 | 0 | 0.0 | 4.0 | 0.00 | 0.00 | 0.00 | 92 | 1004.8 |
| 20260901030203 | 61 | 0 | 1.0 | 6.0 | 0.00 | 0.00 | 0.00 | 92 | 1005.0 |
| 20260901025503 | 60 | 0 | 1.0 | 6.0 | 0.00 | 0.00 | 0.00 | 92 | 1005.0 |
| 20260901024106 | 61 | 359 | 0.0 | 0.0 | 0.00 | 0.00 | 0.00 | 92 | 1004.7 |
| 20260901023404 | 61 | 359 | 0.0 | 0.0 | 0.00 | 0.00 | 0.00 | 100 | |
| 20260901022703 | 61 | 0 | 1.0 | 5.0 | 0.00 | 0.00 | 0.00 | 92 | 1004.7 |
| 20260901022012 | 61 | 0 | 2.0 | 6.0 | 0.00 | 0.00 | 0.00 | 92 | 1004.7 |
| 20260901021304 | 61 | 0 | 4.0 | 9.0 | 0.00 | 0.00 | 0.00 | 93 | 1004.6 |
| 20260901020606 | 61 | 0 | 3.0 | 7.0 | 0.00 | 0.00 | 0.00 | 93 | 1005.1 |
| 20260901015910 | 61 | 0 | 4.0 | 8.0 | 0.00 | 0.00 | 0.00 | 93 | 1004.8 |
| 20260901015208 | 61 | 23 | 4.0 | 10.0 | 0.00 | 0.00 | 0.00 | 93 | 1004.9 |
| 20260901014520 | 61 | 359 | 0.0 | 0.0 | 0.00 | 0.00 | 0.00 | 93 | 1005.0 |
| 20260901013806 | 212 | 359 | 0.0 | 0.0 | 0.00 | 0.00 | 0.00 | 100 | |
| 20260901013106 | 61 | 0 | 5.0 | 9.0 | 0.00 | 0.00 | 0.00 | 93 | 1004.7 |
| 20260901012430 | 61 | 0 | 6.0 | 9.0 | 0.00 | 0.00 | 0.00 | 93 | 1004.9 |
| 20260901011705 | 61 | 0 | 5.0 | 8.0 | 0.00 | 0.00 | 0.00 | 93 | 1004.9 |
| 20260901011013 | 61 | 0 | 4.0 | 7.0 | 0.00 | 0.00 | 0.00 | 93 | 1004.8 |
| 20260901010306 | 61 | 0 | 4.0 | 8.0 | 0.00 | 0.00 | 0.00 | 93 | 1004.8 |
| 20260901005606 | 61 | 0 | 4.0 | 8.0 | 0.00 | 0.00 | 0.00 | 94 | 1004.9 |
| 20260901004918 | 61 | 0 | 3.0 | 7.0 | 0.00 | 0.00 | 0.00 | 94 | 1004.9 |
| 20260901004207 | 61 | 0 | 3.0 | 7.0 | 0.00 | 0.00 | 0.00 | 94 | 1004.8 |
| 20260901003508 | 61 | 0 | 2.0 | 7.0 | 0.00 | 0.00 | 0.00 | 94 | 1004.8 |
| 20260901002807 | 61 | 0 | 4.0 | 10.0 | 0.00 | 0.00 | 0.00 | 94 | 1005.0 |
| 20260901002108 | 61 | 0 | 3.0 | 6.0 | 0.00 | 0.00 | 0.00 | 94 | 1005.2 |
| 20260901001411 | 61 | 0 | 3.0 | 9.0 | 0.00 | 0.00 | 0.00 | 94 | 1005.2 |
| 20260901000708 | 61 | 0 | 1.0 | 5.0 | 0.00 | 0.00 | 0.00 | 93 | 1005.1 |
| 20260831235307 | 61 | 0 | 0.0 | 4.0 | 0.00 | 0.00 | 0.00 | 93 | 1005.1 |
| 20260831233916 | 61 | 0 | 0.0 | 1.0 | 0.00 | 0.00 | 0.00 | 93 | 1005.2 |
| 20260831233209 | 61 | 0 | 0.0 | 0.0 | 0.00 | 0.00 | 0.00 | 93 | 1005.2 |
| 20260831232529 | 61 | 0 | 0.0 | 1.0 | 0.00 | 0.00 | 0.00 | 93 | 1005.2 |
| 20260831231109 | 61 | 0 | 0.0 | 0.0 | 0.00 | 0.00 | 0.00 | 93 | 1005.4 |
| 20260831230409 | 61 | 0 | 0.0 | 0.0 | 0.00 | 0.00 | 0.00 | 93 | 1005.4 |
| 20260831225710 | 61 | 0 | 0.0 | 1.0 | 0.00 | 0.00 | 0.00 | 93 | 1005.6 |
| 20260831225010 | 61 | 0 | 0.0 | 4.0 | 0.00 | 0.00 | 0.00 | 93 | 1005.8 |
| 20260831224309 | 61 | 0 | 0.0 | 3.0 | 0.00 | 0.00 | 0.00 | 93 | 1005.7 |
| 20260831223609 | 60 | 0 | 0.0 | 0.0 | 0.00 | 0.00 | 0.00 | 93 | 1005.8 |
| 20260831222910 | 60 | 0 | 0.0 | 0.0 | 0.00 | 0.00 | 0.00 | 93 | 1005.8 |
| 20260831222214 | 60 | 0 | 0.0 | 0.0 | 0.00 | 0.00 | 0.00 | 93 | 1005.6 |
| 20260831220112 | 60 | 0 | 0.0 | 0.0 | 0.00 | 0.00 | 0.00 | 93 | 1005.6 |
| 20260831215411 | 61 | 0 | 0.0 | 0.0 | 0.00 | 0.00 | 0.00 | 93 | 1005.4 |
| 20260831214710 | 61 | 0 | 0.0 | 0.0 | 0.00 | 0.00 | 0.00 | 93 | 1005.9 |
| 20260831214015 | 61 | 0 | 0.0 | 0.0 | 0.00 | 0.00 | 0.00 | 93 | 1006.1 |
| 20260831213312 | 62 | 0 | 0.0 | 0.0 | 0.00 | 0.00 | 0.00 | 93 | 1006.0 |
| 20260831212613 | 62 | 0 | 0.0 | 0.0 | 0.00 | 0.00 | 0.00 | 93 | 1006.0 |
| 20260831211911 | 62 | 0 | 0.0 | 1.0 | 0.00 | 0.00 | 0.00 | 93 | 1005.9 |
| 20260831211231 | 62 | 0 | 0.0 | 1.0 | 0.00 | 0.00 | 0.00 | 93 | 1005.9 |
| 20260831210525 | 62 | 0 | 0.0 | 0.0 | 0.00 | 0.00 | 0.00 | 93 | 1005.9 |
| 20260831205121 | 62 | 0 | 0.0 | 0.0 | 0.00 | 0.00 | 0.00 | 93 | 1005.9 |
| 20260831204412 | 62 | 0 | 0.0 | 0.0 | 0.00 | 0.00 | 0.00 | 93 | 1005.7 |
| 20260831203058 | 62 | 0 | 0.0 | 0.0 | 0.00 | 0.00 | 0.00 | 92 | 1005.7 |
| 20260831202314 | 62 | 0 | 0.0 | 0.0 | 0.00 | 0.00 | 0.00 | 92 | 1005.8 |
| 20260831201629 | 62 | 0 | 0.0 | 0.0 | 0.00 | 0.00 | 0.00 | 92 | 1005.7 |
| 20260831194900 | 63 | 0 | 0.0 | 0.0 | 0.00 | 0.00 | 0.00 | 92 | 1005.6 |
| 20260831194119 | 63 | 0 | 0.0 | 1.0 | 0.00 | 0.00 | 0.00 | 92 | 1005.6 |
| 20260831192800 | 62 | 0 | 0.0 | 0.0 | 0.00 | 0.00 | 0.00 | 91 | 1005.5 |
| 20260831192014 | 62 | 0 | 0.0 | 0.0 | 0.00 | 0.00 | 0.00 | 91 | 1005.7 |
| 20260831191314 | 62 | 0 | 0.0 | 0.0 | 0.00 | 0.00 | 0.00 | 91 | 1005.6 |
| 20260831190701 | 62 | 0 | 0.0 | 0.0 | 0.00 | 0.00 | 0.00 | 91 | 1005.6 |
| 20260831190000 | 62 | 0 | 0.0 | 0.0 | 0.00 | 0.00 | 0.00 | 91 | 1005.5 |
| 20260831185228 | 62 | 0 | 0.0 | 0.0 | 0.00 | 0.00 | 0.00 | 91 | 1005.6 |
| 20260831184602 | 62 | 0 | 0.0 | 0.0 | 0.00 | 0.00 | 0.00 | 91 | 1005.6 |
| 20260831183856 | 63 | 0 | 0.0 | 0.0 | 0.00 | 0.00 | 0.00 | 90 | 1005.6 |
| 20260831183212 | 63 | 0 | 0.0 | 0.0 | 0.00 | 0.00 | 0.00 | 90 | 1005.5 |
| 20260831181100 | 64 | 0 | 0.0 | 0.0 | 0.00 | 0.00 | 0.00 | 89 | 1005.5 |
| 20260831180403 | 64 | 0 | 0.0 | 1.0 | 0.00 | 0.00 | 0.00 | 89 | 1005.4 |
| 20260831173545 | 66 | 0 | 0.0 | 4.0 | 0.00 | 0.00 | 0.00 | 86 | 1005.0 |
| 20260831172151 | 67 | 0 | 0.0 | 3.0 | 0.00 | 0.00 | 0.00 | 84 | 1004.8 |
| 20260831171447 | 68 | 0 | 2.0 | 6.0 | 0.00 | 0.00 | 0.00 | 83 | 1004.7 |
| 20260831170022 | 70 | 0 | 4.0 | 7.0 | 0.00 | 0.00 | 0.00 | 80 | 1004.7 |
| 20260831165327 | 72 | 0 | 3.0 | 7.0 | 0.00 | 0.00 | 0.00 | 79 | 1004.7 |
| 20260831164626 | 71 | 0 | 3.0 | 7.0 | 0.00 | 0.00 | 0.00 | 81 | 1004.7 |
| 20260831163919 | 69 | 0 | 2.0 | 7.0 | 0.00 | 0.00 | 0.00 | 83 | 1004.8 |
| 20260831162542 | 69 | 0 | 3.0 | 7.0 | 0.00 | 0.00 | 0.00 | 81 | 1004.9 |
| 20260831161123 | 75 | 0 | 4.0 | 9.0 | 0.00 | 0.00 | 0.00 | 73 | 1004.6 |
| 20260831160420 | 75 | 0 | 6.0 | 10.0 | 0.00 | 0.00 | 0.00 | 74 | 1004.6 |
| 20260831155728 | 75 | 0 | 6.0 | 9.0 | 0.00 | 0.00 | 0.00 | 73 | 1004.6 |
| 20260831155037 | 74 | 0 | 5.0 | 8.0 | 0.00 | 0.00 | 0.00 | 75 | 1004.6 |
| 20260831154339 | 72 | 0 | 4.0 | 8.0 | 0.00 | 0.00 | 0.00 | 82 | 1004.7 |
| 20260831153620 | 68 | 0 | 4.0 | 10.0 | 0.00 | 0.00 | 0.00 | 87 | 1004.7 |
| 20260831152224 | 68 | 0 | 1.0 | 8.0 | 0.00 | 0.00 | 0.00 | 87 | 1005.0 |
| 20260831145501 | 68 | 0 | 0.0 | 3.0 | 0.00 | 0.00 | 0.00 | 89 | 1004.9 |
| 20260831145425 | 68 | 0 | 0.0 | 3.0 | 0.00 | 0.00 | 0.00 | 89 | 1004.9 |
| 20260831144741 | 67 | 0 | 0.0 | 4.0 | 0.00 | 0.00 | 0.00 | 89 | 1005.0 |
| 20260831144037 | 66 | 0 | 0.0 | 4.0 | 0.00 | 0.00 | 0.00 | 89 | 1005.1 |
| 20260831142624 | 66 | 0 | 0.0 | 5.0 | 0.00 | 0.00 | 0.00 | 88 | 1005.0 |